Regional Weather Roundup
Issued by NWS

Home | Current Version | Previous Version | Text Only | Print | Product List | Glossary On
Versions: 1 2 3 4 5 6 7 8 9 10 11 12 13 14 15 16 17 18 19 20 21 22 23 24 25 26 27 28 29 30 31 32 33 34 35 36 37 38 39 40 41 42 43 44
000
ASUS42 KFFC 260903
RWRGA
WEATHER ROUNDUP FOR GEORGIA
NATIONAL WEATHER SERVICE PEACHTREE CITY GA
400 AM EST FRI DEC 26 2014

NOTE: "FAIR" INDICATES FEW OR NO CLOUDS BELOW 12,000 FEET WITH NO
SIGNIFICANT WEATHER AND/OR OBSTRUCTIONS TO VISIBILITY.

* = USE WITH CAUTION. THE STATIONS MARKED WITH AN ASTERISK MAY NOT
REPORT WEATHER SUCH AS PRECIPITATION, FOG, OR THUNDER AND ARE NOT
QUALITY CONTROLLED BY NWS.

THE REMARK "TC" DENOTES TEMPERATURE READING IN DEGREES CELSIUS.

GAZ001>058-261000-
NORTH GEORGIA

CITY           SKY/WX    TMP DP  RH WIND       PRES   REMARKS
ATLANTA        MOCLDY    35  31  85 CALM      30.23F
ATHENS         PTCLDY    31  30  96 CALM      30.26S
CHAMBLEE       PTCLDY    30  29  96 CALM      30.24F FOG
PEACHTREE CITY PTCLDY    30  28  92 CALM      30.26S
ROME           PTCLDY    29  27  92 NE3       30.27R
WEST ATLANTA   FOG       31  29  92 CALM      30.25S VSB 1
GAINESVILLE    PTCLDY    34  32  92 NE5       30.26F WCI  30
CARTERSVILLE   MOCLDY    28  26  92 CALM      30.28R


CITY           SKY/WX    TMP DP  RH WIND       PRES   REMARKS
DALTON*        FOG       30  30 100 CALM      30.28S VSB 1/4
MARIETTA       PTCLDY    32  31  99 CALM      30.24F
$$

GAZ059>098-102>109-261000-
CENTRAL GEORGIA

CITY           SKY/WX    TMP DP  RH WIND       PRES   REMARKS
AUGUSTA-BUSH   CLEAR     32  30  92 NW3       30.29R
AUGUSTA-DANIEL CLEAR     40  38  93 CALM      30.28R
COLUMBUS       CLEAR     35  33  92 CALM      30.26S
MACON          FOG       31  31 100 CALM      30.27F VSB 1/2
ROBINS AFB     FOG       39  37  93 CALM      30.28S VSB 1/2


CITY           SKY/WX    TMP DP  RH WIND       PRES   REMARKS
LAGRANGE*      CLEAR     32  32  99 CALM      30.26S
SYLVANIA*      CLEAR     35  35 100 CALM      30.28S
MILLEDGEVILLE* FOG       34  34 100 CALM      30.28S VSB 1/4
$$

GAZ099>101-110>166-261000-
SOUTH GEORGIA

CITY           SKY/WX    TMP DP  RH WIND       PRES   REMARKS
SAVANNAH       CLEAR     39  36  89 CALM      30.28S
VALDOSTA       CLEAR     38  37  97 CALM      30.27R
ALMA           CLEAR     36  35  96 CALM      30.26F FOG
ST SIMONS      CLEAR     40  38  93 CALM      30.26S
FT STEWART     CLEAR     35  34  94 CALM      30.26S
ALBANY         CLEAR     36  34  92 CALM      30.29R
HUNTER AFB     CLEAR     37  37 100 W1        30.25F
MOODY AFB      CLEAR     39  37  93 CALM      30.26R
BRUNSWICK        N/A     36  36 100 CALM      30.27F


CITY           SKY/WX    TMP DP  RH WIND       PRES   REMARKS
BAINBRIDGE*    FOG       37  37 100 CALM      30.26F VSB 1/2
MOULTRIE*      CLEAR     39  39 100 CALM      30.27R
VIDALIA*       CLEAR     37  37 100 CALM      30.27S
WAYCROSS*      CLEAR     41  41  99 CALM      30.27S FOG
DOUGLAS*       CLEAR     41  39  93 CALM      30.28S
$$


USA.gov is the U.S. government's official web portal to all federal, state and local government web resources and services.